Home   Weather   Saalfeld/Saale   Past weeks

Flag for Germany Past Weather in Saalfeld/Saale, Thuringia, Germany — Yesterday and Last 2 Weeks

48 °F

Partly sunny.

Feels Like: 45 °F
Forecast: 47 / 52 °F
Wind: 7 mph from Southwest

Location: Erfurt-Bindersleben

Current Time: Oct 25, 2016 at 10:36:37 AM

Latest Report: Oct 25, 2016 at 10:20 AM

Visibility: N/A

Pressure: 30.12 "Hg

Humidity: 94%

Dew Point: 46 °F

Location of Saalfeld/SaaleLocation

Past Weather in Saalfeld/Saale — Graph


Saalfeld/Saale Temperature Yesterday

Maximum temperature yesterday: 46 °F (at 1:20 PM)
Minimum temperature yesterday: 41 °F (at 12:20 AM)
Average temperature yesterday: 43 °F

High & Low Weather Summary for the Past Weeks

High63 °F (Oct 16, 1:20 PM)100% (Oct 11, 12:50 AM)30.24 "Hg (Oct 11, 12:50 AM)
Low36 °F (Oct 23, 12:20 AM)64% (Oct 16, 1:20 PM)29.74 "Hg (Oct 15, 1:20 AM)
Average46 °F92%30.01 "Hg
* Reported Oct 10 9:20 AM — Oct 25 9:20 AM, Saalfeld/Saale, Weather by CustomWeather, © 2016

Note: Actual official high and low records may vary slightly from our data, if they occured in-between our weather recording intervals... More about our weather records


Saalfeld/Saale Weather History for the Previous 24 Hours

Scroll right to see more
Time TempWeatherWind HumidityBarometerVisibility
9:20 AM
Tue, Oct 25
46 °FPartly sunny.6 mph100%30.12 "HgN/A
8:50 AM46 °FLight rain. Partly sunny.6 mph100%30.09 "Hg4 mi
8:20 AM45 °FLight rain. Fog.5 mph100%30.09 "Hg2 mi
7:50 AM45 °FFog.3 mph100%30.07 "Hg2 mi
7:20 AM45 °FMixture of precip. Fog.1 mph100%30.07 "Hg4 mi
6:50 AM45 °FDrizzle. Fog.1 mph100%30.04 "Hg2 mi
6:20 AM45 °FDrizzle. Fog.2 mph100%30.04 "Hg2 mi
5:50 AM45 °FDrizzle. Fog.3 mph100%30.04 "Hg1 mi
5:20 AM45 °FDrizzle. Fog.1 mph100%30.01 "Hg1 mi
4:50 AM45 °FDrizzle. Fog.2 mph100%30.01 "Hg1 mi
4:20 AM45 °FDrizzle. Fog.1 mph100%30.01 "Hg0 mi
3:50 AM45 °FDrizzle. Fog.No wind100%30.01 "Hg0 mi
3:20 AM45 °FDrizzle. Fog.2 mph100%29.98 "Hg0 mi
2:50 AM45 °FDrizzle. Fog.2 mph100%29.98 "Hg0 mi
2:20 AM45 °FDrizzle. Fog.2 mph100%29.98 "Hg0 mi
1:50 AM45 °FDrizzle. Fog.2 mph100%29.98 "Hg0 mi
1:20 AM45 °FDrizzle. Fog.6 mph100%29.98 "Hg0 mi
12:50 AM45 °FDrizzle. Fog.7 mph100%29.98 "Hg0 mi
12:20 AM45 °FDrizzle. Fog.7 mph100%29.98 "Hg0 mi
11:50 PM
Mon, Oct 24
45 °FDrizzle. Fog.5 mph100%29.98 "Hg0 mi
11:20 PM45 °FDrizzle. Fog.3 mph100%29.98 "Hg0 mi
10:50 PM45 °FDrizzle. Fog.3 mph100%29.98 "Hg0 mi
10:20 PM45 °FDrizzle. Fog.3 mph100%29.98 "Hg0 mi
9:50 PM45 °FDrizzle. Fog.5 mph100%29.95 "Hg0 mi
9:20 PM45 °FDrizzle. Fog.6 mph100%29.98 "Hg0 mi
8:50 PM45 °FDrizzle. Fog.7 mph100%29.95 "Hg0 mi
8:20 PM45 °FDrizzle. Fog.6 mph100%29.95 "Hg0 mi
7:50 PM45 °FDrizzle. Fog.5 mph100%29.95 "Hg0 mi
7:20 PM45 °FDrizzle. Fog.6 mph100%29.95 "Hg0 mi
6:50 PM45 °FDrizzle. Fog.7 mph100%29.95 "Hg0 mi
6:20 PM46 °FDrizzle. Fog.7 mph100%29.95 "Hg0 mi
5:50 PM46 °FDrizzle. Fog.7 mph100%29.95 "Hg0 mi
5:20 PM46 °FDrizzle. Fog.5 mph100%29.92 "Hg0 mi
4:50 PM46 °FDrizzle. Fog.6 mph100%29.92 "Hg0 mi
4:20 PM46 °FDrizzle. Fog.5 mph100%29.95 "Hg0 mi
3:50 PM46 °FDrizzle. Fog.7 mph100%29.92 "Hg0 mi
3:20 PM46 °FDrizzle. Fog.8 mph100%29.95 "Hg1 mi
2:50 PM46 °FLight rain. Fog.7 mph100%29.95 "Hg1 mi
2:20 PM46 °FLight rain. Fog.8 mph100%29.95 "Hg1 mi
1:50 PM46 °FDrizzle. Fog.5 mph100%29.95 "Hg1 mi
1:20 PM46 °FLight rain. Fog.6 mph93%29.95 "Hg1 mi
12:50 PM45 °FFog.2 mph93%29.98 "Hg1 mi
12:20 PM43 °FLight rain. Fog.3 mph100%29.98 "Hg1 mi
11:50 AM43 °FLight rain. Fog.5 mph100%29.98 "Hg1 mi
11:20 AM43 °FLight rain. Fog.3 mph100%29.98 "Hg1 mi
10:50 AM43 °FFog.3 mph100%29.98 "Hg1 mi
10:20 AM43 °FSleet. Cloudy.3 mph100%29.98 "Hg1 mi
Weather by CustomWeather, © 2016

See weather overviewHow to use our weather pages